This is the latest recevied weather packets stored in our database for station/object DH9SB-6. If no packets are shown the sender has not sent any weather packets the latest 10 day(s).
| Time | Temp. | Humidity | Pressure | Rain* | Wind** | Luminosity | Snow |
|---|---|---|---|---|---|---|---|
| 1778264260 | 16.67° C | 54% | - | 0 mm | - | - | - |
| 1778263684 | 16.67° C | 54% | - | 0 mm | - | - | - |
| 1778263061 | 17.22° C | 53% | - | 0 mm | - | - | - |
| 1778262486 | 17.22° C | 52% | - | 0 mm | - | - | - |
| 1778261861 | 17.78° C | 48% | - | 0 mm | - | - | - |
| 1778261285 | 17.78° C | 46% | - | 0 mm | - | - | - |
| 1778260661 | 18.33° C | 45% | - | 0 mm | - | - | - |
| 1778260132 | 18.33° C | 44% | - | 0 mm | - | - | - |
| 1778259465 | 19.44° C | 43% | - | 0 mm | - | - | - |
| 1778258887 | 19.44° C | 43% | - | 0 mm | - | - | - |
| 1778258261 | 19.44° C | 42% | - | 0 mm | - | - | - |
| 1778257686 | 19.44° C | 43% | - | 0 mm | - | - | - |
| 1778257064 | 19.44° C | 43% | - | 0 mm | - | - | - |
| 1778256484 | 19.44° C | 43% | - | 0 mm | - | - | - |
| 1778254662 | 20.56° C | 42% | - | 0 mm | - | - | - |
| 1778254086 | 21.67° C | 42% | - | 0 mm | - | - | - |
| 1778253509 | 21.67° C | 42% | - | 0 mm | - | - | - |
| 1778252885 | 21.67° C | 42% | - | 0 mm | - | - | - |
| 1778252261 | 21.67° C | 44% | - | 0 mm | - | - | - |
| 1778251684 | 21.67° C | 43% | - | 0 mm | - | - | - |
| 1778251060 | 21.67° C | 44% | - | 0 mm | - | - | - |
| 1778250485 | 21.11° C | 44% | - | 0 mm | - | - | - |
| 1778249861 | 21.11° C | 46% | - | 0 mm | - | - | - |
| 1778249333 | 21.67° C | 46% | - | 0 mm | - | - | - |
| 1778248662 | 21.11° C | 47% | - | 0 mm | - | - | - |
* Rain latest hour (hover to see other rain measurements)
** Current wind speed in m/s (hover to see current wind gust speed)